EWG4ZR EDDN-LEPA

Flight info

Callsign EWG4ZR
Flight time N/A
Altitude 35000
Route BOLSI1G/28 BOLSI Y166 DKB N869 NATOR DCT LUTIX/N0448F370 DCT BENOT DCT NEMOS DCT GEVEA DCT INCUS DCT BALSI DCT RETNO DCT TUPOX DCT MTG DCT DIVKO DCT VATIR DCT PIVUS DCT BODEQ DCT VERSO L129 LUNIK LUNIK3P
Aircraft A320/M-SDE3FGHIRWY/LB1

Departure

Time 2026-05-04 13:17
Airport Nuremberg Airport (EDDN)

Arrival

Time N/A
Airport Palma de Mallorca Airport (LEPA)
Time Latitude Longitude Altitude Speed Heading
2026-05-04 12:30 49.49526 11.07660 1026 ft 0 kts 188°
2026-05-04 13:03 49.49546 11.07664 1026 ft 4 kts 184°
2026-05-04 13:03 49.49573 11.07664 1025 ft 4 kts 169°
2026-05-04 13:03 49.49594 11.07651 1026 ft 4 kts 122°
2026-05-04 13:04 49.49598 11.07639 1025 ft 0 kts 98°
2026-05-04 13:10 49.49598 11.07646 1026 ft 1 kts 98°
2026-05-04 13:10 49.49596 11.07665 1025 ft 2 kts 98°
2026-05-04 13:10 49.49593 11.07699 1025 ft 4 kts 98°
2026-05-04 13:10 49.49586 11.07765 1024 ft 8 kts 98°
2026-05-04 13:11 49.49576 11.07871 1027 ft 12 kts 99°
2026-05-04 13:11 49.49561 11.08019 1027 ft 16 kts 98°
2026-05-04 13:11 49.49543 11.08202 1024 ft 13 kts 99°
2026-05-04 13:11 49.49534 11.08289 1029 ft 7 kts 98°
2026-05-04 13:12 49.49541 11.08334 1030 ft 2 kts 54°
2026-05-04 13:12 49.49551 11.08343 1029 ft 2 kts 25°
2026-05-04 13:12 49.49570 11.08347 1031 ft 3 kts
2026-05-04 13:12 49.49593 11.08357 1032 ft 4 kts 22°
2026-05-04 13:13 49.49614 11.08388 1033 ft 4 kts 62°
2026-05-04 13:13 49.49609 11.08477 1034 ft 12 kts 97°
2026-05-04 13:13 49.49588 11.08705 1037 ft 28 kts 98°
2026-05-04 13:13 49.49560 11.08998 1039 ft 27 kts 98°
2026-05-04 13:14 49.49534 11.09252 1043 ft 16 kts 99°
2026-05-04 13:14 49.49532 11.09353 1045 ft 6 kts 76°
2026-05-04 13:14 49.49551 11.09402 1047 ft 7 kts 53°
2026-05-04 13:14 49.49575 11.09455 1048 ft 5 kts 54°
2026-05-04 13:15 49.49599 11.09506 1050 ft 7 kts 54°
2026-05-04 13:15 49.49634 11.09565 1051 ft 8 kts 32°
2026-05-04 13:15 49.49684 11.09562 1052 ft 2 kts 334°
2026-05-04 13:15 49.49699 11.09523 1052 ft 7 kts 290°
2026-05-04 13:16 49.49701 11.09511 1052 ft 0 kts 279°
2026-05-04 13:16 49.49701 11.09510 1052 ft 3 kts 279°
2026-05-04 13:16 49.49723 11.09296 1048 ft 36 kts 279°
2026-05-04 13:16 49.49796 11.08562 1038 ft 103 kts 278°
2026-05-04 13:17 49.49931 11.07181 1027 ft 157 kts 277°
2026-05-04 13:17 49.50120 11.05390 1370 ft 179 kts 282°
2026-05-04 13:17 49.50328 11.03416 1920 ft 193 kts 279°
2026-05-04 13:17 49.50552 11.01336 2538 ft 202 kts 279°
2026-05-04 13:18 49.50777 10.99146 3148 ft 213 kts 278°
2026-05-04 13:18 49.50992 10.96823 3861 ft 223 kts 277°
2026-05-04 13:18 49.51160 10.94409 4645 ft 230 kts 272°
2026-05-04 13:18 49.51038 10.91927 5486 ft 235 kts 257°
2026-05-04 13:19 49.50468 10.89566 6250 ft 241 kts 242°
2026-05-04 13:19 49.49625 10.87265 6831 ft 254 kts 240°
2026-05-04 13:19 49.48806 10.84755 7459 ft 268 kts 244°
2026-05-04 13:19 49.48009 10.82119 8271 ft 273 kts 244°
2026-05-04 13:20 49.47104 10.79554 9128 ft 274 kts 231°
2026-05-04 13:20 49.45726 10.77550 10003 ft 274 kts 212°
2026-05-04 13:20 49.43975 10.76365 10605 ft 284 kts 194°
2026-05-04 13:20 49.41922 10.76110 10841 ft 308 kts 181°
2026-05-04 13:21 49.39687 10.76105 11280 ft 322 kts 181°
2026-05-04 13:21 49.37466 10.76086 11926 ft 327 kts 181°
2026-05-04 13:21 49.35173 10.76055 12657 ft 331 kts 181°
2026-05-04 13:21 49.32855 10.76018 13362 ft 334 kts 181°
2026-05-04 13:22 49.30515 10.75976 14026 ft 338 kts 181°
2026-05-04 13:22 49.28165 10.75812 14630 ft 340 kts 189°
2026-05-04 13:22 49.25894 10.74757 15234 ft 344 kts 206°
2026-05-04 13:22 49.23922 10.72700 15834 ft 348 kts 223°
2026-05-04 13:23 49.22421 10.69765 16454 ft 353 kts 239°
2026-05-04 13:23 49.21540 10.66257 17073 ft 359 kts 253°
2026-05-04 13:23 49.20911 10.62522 17703 ft 362 kts 253°
2026-05-04 13:23 49.20284 10.58794 18331 ft 364 kts 253°
2026-05-04 13:24 49.19650 10.55033 18853 ft 367 kts 253°
2026-05-04 13:24 49.19007 10.51249 19370 ft 369 kts 253°
2026-05-04 13:24 49.18354 10.47444 19920 ft 371 kts 253°
2026-05-04 13:25 49.17025 10.39744 21024 ft 377 kts 253°
2026-05-04 13:25 49.16353 10.35872 21516 ft 379 kts 253°
2026-05-04 13:25 49.15676 10.31957 22023 ft 382 kts 253°
2026-05-04 13:25 49.14997 10.28040 22491 ft 384 kts 252°
2026-05-04 13:26 49.14053 10.24212 22957 ft 384 kts 242°
2026-05-04 13:26 49.12658 10.20756 23387 ft 385 kts 231°
2026-05-04 13:26 49.10979 10.17569 23815 ft 387 kts 230°
2026-05-04 13:26 49.09286 10.14376 24195 ft 389 kts 230°
2026-05-04 13:27 49.07572 10.11139 24585 ft 391 kts 230°
2026-05-04 13:27 49.05858 10.07901 24968 ft 393 kts 230°
2026-05-04 13:27 49.04148 10.04661 25345 ft 394 kts 231°
2026-05-04 13:27 49.02418 10.01382 25708 ft 396 kts 231°
2026-05-04 13:28 49.00694 9.98119 26080 ft 398 kts 231°
2026-05-04 13:28 48.98944 9.94817 26448 ft 400 kts 231°
2026-05-04 13:28 48.97190 9.91517 26809 ft 402 kts 231°
2026-05-04 13:28 48.95425 9.88209 27165 ft 404 kts 231°
2026-05-04 13:29 48.93660 9.84907 27530 ft 405 kts 231°
2026-05-04 13:29 48.92468 9.82682 27761 ft 407 kts 231°
2026-05-04 13:29 48.90147 9.78348 28211 ft 409 kts 231°
2026-05-04 13:29 48.89031 9.76262 28433 ft 410 kts 231°